Lid_Strength_Index
16 18 19 17 17 19 18 20 20 20 20 20 20 20 19 19 18 18 17 18 18 17 16 16 16 16 16 16 16 16 16 16 16 17 18 18 18 17 17 16 15 15 15 15
18 19 17 16 17 18 18 20 21 20 19 20 22 21 20 20 19 17 16 17 17 17 17 17 17 17 17 17 16 16 16 16 16 16 17 17 18 18 17 16 16 15 15 15
19 20 18 18 18 18 19 19 21 19 20 22 23 22 21 19 19 18 16 16 17 16 17 18 17 18 18 18 17 16 16 16 16 16 17 17 17 17 17 17 16 16 15 15
20 19 18 18 18 17 19 19 19 20 20 22 22 25 23 20 19 18 17 17 16 17 16 17 17 18 18 17 17 16 16 16 16 16 16 17 17 18 18 17 16 16 15 15
20 21 19 19 19 18 19 18 18 19 21 23 25 25 22 21 20 18 18 17 16 16 16 16 16 15 16 17 17 17 17 16 16 16 16 17 17 17 17 17 16 16 15 14
21 20 20 20 18 18 18 18 18 19 21 27 24 23 23 21 18 19 18 17 16 16 16 16 15 16 17 17 17 18 17 17 16 16 16 16 17 16 16 16 16 16 16 15
21 21 21 19 20 19 19 19 22 25 27 26 24 24 21 19 18 17 17 17 16 16 16 16 17 17 17 17 18 18 17 17 16 16 16 16 16 16 16 16 16 16 16 16
22 23 20 19 20 20 19 20 22 26 27 24 22 25 20 18 18 17 17 16 17 17 17 16 16 16 16 16 17 17 17 17 16 17 16 16 16 16 16 16 16 16 16 16
24 23 20 19 19 19 20 22 19 24 28 27 23 21 18 18 18 18 17 17 17 17 17 16 17 17 17 17 17 16 17 16 16 16 16 16 16 16 16 16 16 16 16 15
20 25 21 20 19 20 20 19 21 23 27 28 24 25 21 19 18 17 18 17 17 17 17 16 16 17 17 16 16 16 16 16 16 16 16 16 16 16 16 16 16 16 15 15
22 21 24 21 23 21 22 23 22 21 23 26 28 23 19 16 16 16 16 16 17 17 16 16 16 17 16 16 17 16 16 16 16 15 16 16 16 16 15 15 15 15 15 14
18 24 29 25 23 21 23 22 21 24 26 26 25 24 18 17 17 16 17 16 17 16 16 17 16 16 17 17 17 17 16 16 15 15 15 15 15 15 16 16 15 15 15 14
20 25 30 26 25 23 26 21 20 22 22 26 25 22 18 18 18 17 16 17 16 16 17 17 17 17 17 17 16 17 16 16 16 15 16 16 16 16 16 15 15 15 16 16
17 28 25 24 22 24 28 24 20 22 28 25 22 22 19 17 18 17 17 16 17 16 17 17 17 17 16 16 16 16 16 16 16 16 16 16 16 15 16 15 15 15 15 17
20 27 31 29 24 25 27 28 22 22 19 21 19 19 17 16 16 17 17 17 17 17 17 17 17 17 16 16 16 16 16 16 16 16 16 16 15 16 15 15 15 15 15 15
24 28 31 29 23 22 25 25 23 20 21 21 21 21 17 16 17 18 17 17 16 16 16 17 16 16 16 15 16 15 16 16 16 16 16 15 15 15 15 15 15 15 15 15
24 28 29 29 25 24 24 23 25 22 24 19 21 17 17 17 16 16 17 16 16 16 17 17 17 16 17 17 17 19 18 17 17 17 16 16 16 16 17 16 16 16 17 17
25 26 26 31 29 29 21 24 21 19 19 19 19 19 17 16 18 18 17 16 16 17 17 17 18 19 20 20 20 19 19 19 19 19 19 18 18 18 19 19 19 19 19 21
22 22 24 25 33 24 20 24 23 22 19 17 17 15 19 21 20 19 18 18 18 18 19 20 21 21 22 21 21 21 22 21 21 21 21 20 20 20 20 21 22 22 23 24
22 22 21 30 28 29 19 21 20 19 20 17 16 15 15 18 19 16 20 20 20 20 21 22 22 22 23 23 22 23 24 24 24 23 22 22 21 22 23 22 22 22 24 24
25 25 23 23 25 25 22 22 20 22 20 19 17 15 17 17 20 23 21 22 22 22 23 23 24 24 24 24 24 25 26 27 25 25 24 24 23 23 23 23 23 24 25 25
24 24 24 24 24 25 22 21 19 19 22 20 20 18 18 22 22 22 23 23 23 24 24 24 26 26 26 25 25 27 28 27 27 27 26 26 25 23 23 24 24 24 25 24
21 20 21 19 20 21 20 20 20 20 19 20 20 20 20 22 23 23 24 24 24 25 25 26 27 29 29 28 27 28 29 28 28 28 28 28 26 25 24 25 26 26 26 25
22 21 20 19 20 21 20 21 19 18 19 19 19 20 20 23 23 24 24 25 25 26 27 27 28 29 30 29 29 29 28 29 29 29 29 28 28 28 27 26 25 26 27 28
20 19 20 21 20 19 19 18 18 19 19 20 20 20 21 22 23 23 24 25 25 26 26 27 28 29 30 30 30 29 29 28 29 29 29 29 28 28 28 27 26 25 25 23
21 22 20 19 18 16 18 18 19 19 20 20 21 22 21 21 23 24 25 25 26 27 27 28 28 29 30 30 31 31 30 28 28 29 29 29 29 29 29 29 28 23 21 20